Home > Weather > Elmshorn > Past weeks

Flag for Germany Past Weather in Elmshorn, Schleswig-Holstein, Germany — Yesterday and Last 2 Weeks

Now
66 °F

Partly sunny.


Feels Like: 66 °F
Forecast: 53 / 64 °F
Wind: 10 mph from Southwest

Location: Hamburg-Fuhlsbuettel

Current Time: Jul 1, 2016 at 8:59:19 PM

Latest Report: Jul 1, 2016 at 8:20 PM


Visibility: N/A

Pressure: 29.86 "Hg

Humidity: 83%

Dew Point: 61 °F

Location of ElmshornLocation

Past Weather in Elmshorn — Graph

°F

Elmshorn Temperature Yesterday

Maximum temperature yesterday: 68 °F (at 1:20 PM)
Minimum temperature yesterday: 57 °F (at 2:50 AM)
Average temperature yesterday: 64 °F

High & Low Weather Summary for the Past Weeks

 TemperatureHumidityPressure
High90 °F (Jun 23, 5:50 PM)100% (Jun 17, 1:20 AM)30.21 "Hg (Jun 17, 1:20 AM)
Low46 °F (Jun 20, 1:20 AM)40% (Jun 23, 3:50 PM)29.56 "Hg (Jun 17, 1:50 AM)
Average64 °F79%29.96 "Hg
* Reported Jun 16 7:20 PM — Jul 1 7:20 PM, Elmshorn, Weather by CustomWeather, © 2016

Note: Actual official high and low records may vary slightly from our data, if they occured in-between our weather recording intervals... More about our weather records

Advertising

Elmshorn Weather History for the Previous 24 Hours

Scroll right to see more
 ConditionsComfort  
Time TempWeatherWind HumidityBarometerVisibility
7:20 PM
Fri, Jul 1
64 °FBroken clouds.8 mph88%29.86 "HgN/A
6:50 PM64 °FBroken clouds.9 mph88%29.86 "HgN/A
6:20 PM64 °FScattered showers. Partly sunny.8 mph88%29.86 "HgN/A
5:50 PM64 °FSprinkles. Partly sunny.12 mph88%29.86 "HgN/A
5:20 PM66 °FSprinkles. Partly sunny.14 mph88%29.86 "HgN/A
4:50 PM66 °FSprinkles. Broken clouds.18 mph83%29.86 "HgN/A
4:20 PM70 °FPartly sunny.14 mph73%29.86 "HgN/A
3:50 PM70 °FPartly sunny.12 mph73%29.86 "HgN/A
3:20 PM68 °FLight rain. Partly sunny.14 mph78%29.86 "HgN/A
2:50 PM68 °FLight rain. Partly sunny.16 mph78%29.86 "HgN/A
2:20 PM68 °FPartly sunny.16 mph78%29.86 "HgN/A
1:50 PM66 °FPartly sunny.15 mph83%29.86 "HgN/A
1:20 PM64 °FLight rain. Broken clouds.14 mph88%29.89 "Hg5 mi
12:50 PM64 °FLight rain. Broken clouds.16 mph88%29.89 "Hg5 mi
12:20 PM68 °FPartly sunny.16 mph73%29.86 "HgN/A
11:50 AM68 °FPartly sunny.20 mph73%29.86 "HgN/A
11:20 AM68 °FBroken clouds.16 mph73%29.86 "HgN/A
10:50 AM68 °FBroken clouds.17 mph78%29.86 "HgN/A
10:20 AM68 °FPartly sunny.17 mph78%29.86 "HgN/A
9:50 AM66 °FPartly sunny.17 mph78%29.86 "HgN/A
9:20 AM66 °FPartly sunny.16 mph78%29.86 "HgN/A
8:50 AM66 °FPartly sunny.14 mph78%29.86 "HgN/A
8:20 AM64 °FPartly sunny.15 mph83%29.86 "HgN/A
7:50 AM64 °FBroken clouds.13 mph83%29.83 "HgN/A
7:20 AM63 °FPartly sunny.15 mph88%29.86 "HgN/A
6:50 AM63 °FPartly sunny.14 mph88%29.86 "HgN/A
6:20 AM63 °FBroken clouds.14 mph88%29.83 "HgN/A
5:50 AM63 °FPassing clouds.12 mph83%29.86 "HgN/A
5:20 AM63 °FPassing clouds.13 mph83%29.86 "HgN/A
4:50 AM63 °FPassing clouds.10 mph88%29.83 "HgN/A
4:20 AM63 °FPassing clouds.10 mph88%29.83 "HgN/A
3:50 AM64 °FPassing clouds.12 mph83%29.83 "HgN/A
3:20 AM64 °FPassing clouds.14 mph83%29.83 "HgN/A
2:50 AM64 °FPassing clouds.13 mph83%29.83 "HgN/A
2:20 AM64 °FPassing clouds.14 mph83%29.83 "HgN/A
1:50 AM64 °FPassing clouds.15 mph83%29.86 "HgN/A
1:20 AM66 °FPartly cloudy.13 mph78%29.86 "HgN/A
12:50 AM64 °FPassing clouds.9 mph83%29.86 "HgN/A
12:20 AM64 °FLight rain. Passing clouds.12 mph83%29.86 "HgN/A
11:50 PM
Thu, Jun 30
64 °FLight rain. Partly cloudy.10 mph78%29.86 "HgN/A
11:20 PM64 °FPassing clouds.13 mph78%29.86 "HgN/A
10:50 PM64 °FPartly sunny.13 mph78%29.89 "HgN/A
10:20 PM66 °FPartly sunny.13 mph73%29.86 "HgN/A
9:50 PM66 °FPartly sunny.13 mph73%29.86 "HgN/A
9:20 PM66 °FBroken clouds.10 mph73%29.86 "HgN/A
8:50 PM66 °FPartly sunny.13 mph73%29.86 "HgN/A
8:20 PM66 °FPartly sunny.12 mph73%29.86 "HgN/A
Weather by CustomWeather, © 2016

See weather overviewHow to use our weather pages